Terminal Aerodrome Forecast
Issued by NWS Wilmington, OH

Current Version | Previous Version | Graphics & Text | Print | Product List | Glossary On
Versions: 1 2 3 4 5 6 7 8 9 10 11 12 13 14 15 16 17 18 19
000
FTUS41 KILN 161100
TAFCMH
TAF
KCMH 161127Z 1612/1712 36008KT P6SM OVC009
     FM161500 01008KT P6SM BKN015
     FM161700 01005KT P6SM BKN025
     FM161900 36004KT P6SM SCT035
     FM170000 VRB02KT P6SM SKC
     FM170900 VRB03KT 4SM BR SKC=

USA.gov is the U.S. government's official web portal to all federal, state and local government web resources and services.